Big Delta, AK

1:10 AM AKST on December 16, 2017 (GMT -0900)
Allen Army Air Field

Weather History for PABI - January, 2014

Change the Weather History Date:

Tuesday, January 7, 2014

  Actual Average Record
Temperature  
Mean Temperature 16 °F -  
Max Temperature 19 °F 3 °F 28 °F (2002)
Min Temperature 12 °F -6 °F -50 °F (1997)
Degree Days  
Heating Degree Days 50    
Moisture  
Dew Point 10 °F    
Average Humidity 79    
Maximum Humidity 88    
Minimum Humidity 63    
Precipitation  
Precipitation 0.00 in - - ()
Sea Level Pressure  
Sea Level Pressure 29.67 in    
Wind  
Wind Speed 15 mph (ESE)    
Max Wind Speed 18 mph    
Max Gust Speed 26 mph    
Visibility 10 miles    
Events      
Averages and records for this station are not official NWS values.
T = Trace of Precipitation, MM = Missing Value Source: NWS Daily Summary

Daily Weather History Graph

Daily Weather History Graph

Search for Another Location

Airport or City:

Trip Planner

Search our weather history database for the weather conditions in past years. The results will help you decide how hot, cold, wet, or windy it might be!

Date:

Astronomy

Jan. 07, 2014 Rise Set
Actual Time 10:23 AM AKST 3:15 PM AKST
Civil Twilight 9:11 AM AKST 4:27 PM AKST
Nautical Twilight 8:05 AM AKST 5:33 PM AKST
Astronomical Twilight 7:07 AM AKST 6:31 PM AKST
Moon 11:23 AM AKST (1/7) 12:42 AM AKST (1/7)
Length of Visible Light 7h 15m
Length of Day
4h 51m
Waxing Crescent, 47% of the Moon is Illuminated
Jan 7
Waxing Crescent
Jan 7
First Quarter
Jan 15
Full
Jan 23
Last Quarter
Jan 30
New

Hourly Weather History & Observations

Time (AKST) Temp. Windchill Dew Point Humidity Pressure Visibility Wind Dir Wind Speed Gust Speed Precip Events Conditions
12:53 AM 18.0 °F 2.6 °F 10.0 °F 71% 29.74 in 10.0 mi ESE 17.3 mph - N/A   Clear
1:53 AM 18.0 °F 2.2 °F 10.9 °F 74% 29.75 in 10.0 mi ESE 18.4 mph - N/A   Clear
2:53 AM 18.0 °F 2.2 °F 10.9 °F 74% 29.75 in 10.0 mi ESE 18.4 mph 26.5 mph N/A   Clear
3:53 AM 17.1 °F 2.5 °F 10.0 °F 74% 29.75 in 10.0 mi ESE 15.0 mph - N/A   Clear
4:53 AM 16.0 °F 1.7 °F 10.0 °F 77% 29.74 in 10.0 mi ESE 13.8 mph - N/A   Clear
5:53 AM 16.0 °F 1.1 °F 9.0 °F 74% 29.72 in 10.0 mi ESE 15.0 mph - N/A   Clear
6:53 AM 16.0 °F 0.1 °F 9.0 °F 74% 29.71 in 10.0 mi ESE 17.3 mph - N/A   Clear
7:53 AM 15.1 °F 0.5 °F 9.0 °F 77% 29.71 in 10.0 mi ESE 13.8 mph - N/A   Scattered Clouds
8:53 AM 14.0 °F -2.0 °F 9.0 °F 80% 29.71 in 10.0 mi ESE 16.1 mph - N/A   Scattered Clouds
9:53 AM 14.0 °F 0.5 °F 9.0 °F 80% 29.71 in 10.0 mi ESE 11.5 mph - N/A   Scattered Clouds
10:53 AM 14.0 °F -0.8 °F 9.0 °F 80% 29.70 in 10.0 mi ESE 13.8 mph - N/A   Scattered Clouds
11:53 AM 15.1 °F 1.1 °F 10.0 °F 80% 29.70 in 10.0 mi ESE 12.7 mph - N/A   Mostly Cloudy
12:53 PM 15.1 °F -0.1 °F 10.0 °F 80% 29.68 in 10.0 mi East 15.0 mph - N/A   Mostly Cloudy
1:53 PM 16.0 °F 0.1 °F 10.9 °F 81% 29.67 in 10.0 mi East 17.3 mph - N/A   Mostly Cloudy
2:53 PM 16.0 °F 1.7 °F 10.9 °F 81% 29.67 in 10.0 mi ESE 13.8 mph - N/A   Overcast
3:53 PM 15.1 °F 0.5 °F 10.9 °F 84% 29.65 in 10.0 mi East 13.8 mph - N/A   Overcast
4:53 PM 12.9 °F 0.7 °F 9.0 °F 84% 29.65 in 10.0 mi East 9.2 mph - N/A   Overcast
5:53 PM 12.0 °F -1.3 °F 9.0 °F 88% 29.62 in 10.0 mi East 10.4 mph - N/A   Overcast
6:53 PM 12.0 °F 0.5 °F 9.0 °F 88% 29.61 in 10.0 mi East 8.1 mph - N/A   Overcast
7:53 PM 12.0 °F -1.3 °F 9.0 °F 88% 29.60 in 10.0 mi East 10.4 mph - N/A   Overcast
8:53 PM 14.0 °F -0.2 °F 10.0 °F 84% 29.57 in 10.0 mi ESE 12.7 mph - N/A   Overcast
9:53 PM 14.0 °F 0.5 °F 10.0 °F 84% 29.57 in 10.0 mi ESE 11.5 mph - N/A   Clear
10:53 PM 15.1 °F -0.1 °F 10.0 °F 80% 29.55 in 10.0 mi ESE 15.0 mph - N/A   Partly Cloudy
11:53 PM 16.0 °F 0.1 °F 10.9 °F 81% 29.54 in 10.0 mi ESE 17.3 mph - N/A   Partly Cloudy